Regional Weather Roundup
Issued by NWS

Home | Current Version | Previous Version | Graphics & Text | Print | Product List | Glossary On
Versions: 1 2 3 4 5 6 7 8 9 10 11 12 13 14 15 16 17 18 19 20 21 22 23 24 25 26 27
000
ASUS45 KBOU 221106
RWRCO

WEATHER ROUNDUP FOR COLORADO
NATIONAL WEATHER SERVICE DENVER/BOULDER CO
500 AM MDT TUE APR 22 2014

NOTE: "FAIR" INDICATES FEW OR NO CLOUDS BELOW 12000 FEET WITH NO
SIGNIFICANT WEATHER AND/OR OBSTRUCTIONS TO VISIBILITY.

COZ001>005-013-030-031-221200-
...NORTHWEST COLORADO...

CITY           SKY/WX    TMP DP  RH WIND       PRES   REMARKS
CRAIG          MOCLDY    37  31  78 VRB3      30.05F
HAYDEN         MOCLDY    41  27  56 E13       30.08F
MEEKER         MOCLDY    42  32  67 NE3       30.05F
MOUNT WERNER   MOCLDY    45  18  33 S17G23    30.26F
STEAMBOAT SPGS MOCLDY    38  26  61 CALM      30.09F
WALDEN         PTCLDY    36  25  64 SE9       30.14F
$$

COZ006>008-011-221200-
...WEST CENTRAL VALLEYS...

CITY           SKY/WX    TMP DP  RH WIND       PRES   REMARKS
GRAND JUNCTION MOCLDY    56  29  35 E22       29.98F
MONTROSE       CLEAR     49  29  46 SE10      30.08F
EAGLE          CLEAR     36  27  69 CALM      30.17F
RIFLE          CLEAR     41  30  65 CALM      30.06F
DELTA          NOT AVBL
NUCLA          NOT AVBL
$$

COZ017>023-064>068-221200-
...SOUTHWEST COLORADO...

CITY           SKY/WX    TMP DP  RH WIND       PRES   REMARKS
DURANGO        MOCLDY    38  25  59 CALM      30.17F
CORTEZ         CLEAR     38  29  70 VRB5      30.10F
PAGOSA SPRINGS PTCLDY    36  25  64 NE5       30.24S
TELLURIDE      PTCLDY    43  27  52 SE3       30.24F
WOLF CREEK PAS CLEAR     32  21  64 SW16G29   30.40S WCI  21
$$

COZ009-010-012-014-032>034-037-058>063-221200-
...CENTRAL COLORADO...

CITY           SKY/WX    TMP DP  RH WIND       PRES   REMARKS
ASPEN          PTCLDY    41  27  57 SW9       30.16F
BUENA VISTA    PTCLDY    33  28  82 CALM      30.24S
COPPER MTN     CLEAR     37  21  52 SW9G16    30.36F
BERTHOUD PASS  FAIR      32  21  64 W25G35    30.35F WCI  19
COTTONWOOD PAS PTCLDY    39  32  75 CALM      30.29S
GUNNISON       CLEAR     30  21  69 E5        30.26F WCI  25
KREMMLING      PTCLDY    30  25  80 CALM      30.19F
LEADVILLE      PTCLDY    30  23  75 CALM      30.28F
MONARCH PASS   PTCLDY    32  21  64 SW15      30.47F WCI  22
SALIDA         PTCLDY    37  31  78 W5        30.30S
SUNLIGHT       CLEAR     37  28  70 CALM      30.29F
WILKERSON PASS PTCLDY    32  28  86 SW9       30.33F WCI  24
$$

COZ069>075-221200-
...SAN LUIS VALLEY/SANGRE DE CRISTO MOUNTAINS...

CITY           SKY/WX    TMP DP  RH WIND       PRES   REMARKS
ALAMOSA        PTCLDY    38  30  73 W6        30.22F
LA VETA PASS   PTCLDY    34  32  93 SW12G18   30.31R WCI  25
SAGUACHE       CLOUDY    37  23  56 N9        30.25S
$$

COZ035-036-038>040-221200-
...NORTHERN COLORADO FRONT RANGE...

CITY           SKY/WX    TMP DP  RH WIND       PRES   REMARKS
DENVER INTL AP PTCLDY    50  33  52 CALM      30.04F
DMNS CITY PARK   N/A     53  34  48 SW8       30.04S
AURORA         PTCLDY    50  32  50 S18       30.04F
FRONT RANGE AP NOT AVBL
ERIE MUNI ARPT PTCLDY    39  37  91 SW5       30.04F
BOULDER MUN AP PTCLDY    46  34  61 CALM      30.03F
CENTENNIAL     PTCLDY    49  33  54 SE10      30.06F
BROOMFIELD     PTCLDY    46  34  61 N5        30.05F
FORT COLLINS   MOCLDY    43  34  70 NE5       30.05F
LONGMONT       NOT AVBL
$$

COZ041-046-047-076>085-087-088-221200-
...PIKES PEAK/PALMER DIVIDE AND SOUTHERN FOOTHILLS...

CITY           SKY/WX    TMP DP  RH WIND       PRES   REMARKS
COLO. SPRINGS  PTCLDY    40  35  83 NE8       30.15F
A. F. ACADEMY  PTCLDY    35  30  82 N7        30.16F WCI  29
ELLICOTT       NOT AVBL
FALCON         PTCLDY    41  35  80 CALM      30.17F
FORT CARSON    CLEAR     39  32  75 NW7       30.12F
LIMON          CLEAR     39  34  82 SE6       30.13F
MONUMENT HILL  PTCLDY    39  36  87 S8        30.13F
TRINIDAD       PTCLDY    52  40  63 SW15      30.14F
$$

COZ042>045-048>051-090-091-221200-
...NORTHEAST COLORADO...

CITY           SKY/WX    TMP DP  RH WIND       PRES   REMARKS
GREELEY ARPT   MOCLDY    37  28  70 N5        30.03F
AKRON          PTCLDY    44  33  65 S17       30.08F
BURLINGTON     CLEAR     44  30  57 S16       30.13F
WRAY           CLEAR     47  33  58 S7        30.11F
STERLING       NOT AVBL
HOLYOKE        NOT AVBL
FORT MORGAN    NOT AVBL
$$

COZ086-089-092>099-221200-
...SOUTHEAST COLORADO...

CITY           SKY/WX    TMP DP  RH WIND       PRES   REMARKS
PUEBLO         CLEAR     44  37  76 N3        30.10F
LA JUNTA       CLEAR     51  41  68 SE8       30.10F
LAMAR          CLEAR     45  34  65 E3        30.12F
SPRINGFIELD      N/A     45  41  86 S9        30.17F
$$



USA.gov is the U.S. government's official web portal to all federal, state and local government web resources and services.